Chaleur - Miscou: Past 24 Hour Conditions

 

St. Lawrence

04:30 PM NDT 23 August 2014
This table is a summary of hourly weather conditions for the past 24 hours.
Date / Time
(NDT)
Wind(knots) Conditions Visibility(km) Pressure(kPa) Air tempC) Relative humidity(%) Dew pointC)
23 August 2014
16:30 NNW 2 N/A N/A 101.6 15 81 12
15:30 ENE 9 N/A N/A 101.6 16 78 12
14:30 ENE 6 N/A N/A 101.6 17 70 12
13:30 N 9 gust 15 N/A N/A 101.6 17 69 11
12:30 NNE 7 gust 19 N/A N/A 101.6 16 78 12
11:30 NE 14 N/A N/A 101.6 16 76 12
10:30 N 11 N/A N/A 101.6 15 76 11
9:30 N 12 N/A N/A 101.6 15 74 11
8:30 N 12 N/A N/A 101.6 14 85 11
7:30 NNW 7 N/A N/A 101.6 12 90 10
6:30 NNW 6 N/A N/A 101.6 11 92 10
5:30 NNW 8 N/A N/A 101.5 12 91 10
4:30 N 8 N/A N/A 101.6 12 94 11
3:30 N 8 N/A N/A 101.5 11 92 9
2:30 N 7 N/A N/A 101.6 11 90 9
1:30 N 6 N/A N/A 101.6 11 89 10
0:30 N 6 N/A N/A 101.6 12 89 10
22 August 2014
23:30 NNE 8 N/A N/A 101.7 13 85 10
22:30 N 6 N/A N/A 101.7 13 90 11
21:30 N 6 N/A N/A 101.7 13 90 11
20:30 N 11 gust 16 N/A N/A 101.6 15 83 12
19:30 NNE 11 gust 19 N/A N/A 101.6 16 74 11
18:30 N 12 gust 18 N/A N/A 101.5 17 70 11
17:30 N 13 N/A N/A 101.5 18 68 12
16:30 N 12 gust 18 N/A N/A 101.5 19 66 13
 
Map of Atlantic - Newfoundland marine weather areas Southwestern Grand Banks - 44138 Banquereau - 44139 Tail of the Bank - 44140 Nickerson Bank - 44251 Northeast Burgeo Bank - 44255 Blanc-Sablon Airport Cap Whittle Chevery Natashquan Airport Heath Point Miscou Island Grand Étang Ingonish Beach North Mountain St.Paul Island J.A. Douglas McCurdy Sydney Airport Charlottetown Airport East Point North Cape Argentia Bonavista Burgeo Cape Race Corner Brook Daniel's Harbour Englee Ferolle Point La Scie Port aux Basques Rocky Harbour Sagona Island St. Anthony Airport St. John's Int'l Airport St. Lawrence Stephenville Airport Twillingate Winterland Wreckhouse Cartwright Airport Mary's Harbour Grates Cove Pool's Island Marticot Island Long Pond Îles de la Madeleine Airport
Legend: buoyBuoy land stationLand Station